User: anonymous   Login
Location: Ostrava
(49.8330°N, 18.2830°E)
Time: 22:20:51
(UTC+02:00)
Language:

Vanguard 2 Rocket - Orbit

View from above orbital plane
View from above orbital plane
View from above satellite
View from above satellite

Ground track
Ground track

The orbit data is extracted from the following two-line orbital elements,

1    12U 59001B   17114.26530115 +.00000196 +00000-0 +10966-3 0  9996
2    12 032.9002 054.6675 1667342 149.6016 221.2821 11.44149867390780
Epoch (UTC): 24 April 2017 06:22:02
Eccentricity: 0.1667342
inclination: 32.9002°
perigee height: 554 km
apogee height: 3328 km
right ascension of ascending node: 54.6675°
argument of perigee: 149.6016°
revolutions per day: 11.44149867
mean anomaly at epoch: 221.2821°
orbit number at epoch: 39078

The dashed part of the orbit path shows where the satellite is in the earth's shadow,  

DLR